Regional Weather Roundup
Issued by NWS

Home | Current Version | Previous Version | Text Only | Print | Product List | Glossary On
Versions: 1 2 3 4 5 6 7 8 9 10 11 12 13 14 15 16 17 18 19 20 21 22 23 24 25 26 27 28 29 30 31 32 33 34 35 36 37 38 39 40 41 42 43 44 45 46 47 48 49 50
000
ASHW40 PHFO 152043
RWRHI

WEATHER ROUNDUP FOR HAWAII
NATIONAL WEATHER SERVICE HONOLULU HI
1000 AM HST FRI DEC 15 2017

THIS IS AN AUTOMATED REPORT THAT HAS NOT BEEN QUALITY CONTROLLED.

NOTE..."FAIR" INDICATES FEW OR NO CLOUDS BELOW 12,000 FEET WITH NO
SIGNIFICANT WEATHER AND/OR OBSTRUCTIONS TO VISIBILITY.

* - THESE SITES REPORT LIMITED FIELDS
# - BUOY DATA PROVIDED BY PACIFIC ISLANDS OCEAN OBSERVING SYSTEM.

HIZ001>004-152100-
KAUAI-NIIHAU-

CITY           SKY/WX    TMP DP  RH WIND       PRES   REMARKS
LIHUE APT      MOSUNNY   70  53  54 N22       30.06S
PORT ALLEN*      N/A     73 N/A N/A NE17G26     N/A
POIPU*           N/A     73 N/A N/A NE8G20      N/A
PRINCEVILLE*   NOT AVBL
KOKOLE POINT*  NOT AVBL
MOLOAA DAIRY*    N/A     75  55  50 NE3G13      N/A
WAIMEA HTS*      N/A     77  50  38 E9G16       N/A
PUU OPAE*        N/A     64  46  52 NE9G20      N/A
PUU LUA*       NOT AVBL
MAKAHA RIDGE*    N/A     64  50  59 NE5G17      N/A
$$

HIZ005>011-152100-
OAHU-

CITY           SKY/WX    TMP DP  RH WIND       PRES   REMARKS
HONOLULU       MOSUNNY   76  54  46 N13G20    30.00S
KALAELOA       MOSUNNY   73  58  59 NE7G20    30.02F
KANEOHE MCB    MOSUNNY   75  62  64 N13       29.98F
WHEELER FIELD  FAIR      66  59  79 N8        30.03F
BELLOWS*         N/A    N/A N/A N/A N14G23      N/A
KAHUKU*          N/A    N/A N/A N/A N6G13       N/A
WHEELER*         N/A    N/A N/A N/A N8G16       N/A
WAIANAE HARBOR   N/A    N/A N/A N/A N6G13       N/A
DILLINGHAM*    NOT AVBL
KAHUKU TRN*      N/A     72  57  60 SW10G20     N/A
KAWAILOA*        N/A     64  57  77 N9G21       N/A
KII*             N/A     72  59  64 N15G22      N/A
MAKUA RANGE*     N/A     72  55  56 NW13G32     N/A
OAHU FOREST NW NOT AVBL
SCHOFIELD BRK*   N/A     66  57  72 MISG        N/A
SCHOFIELD S*   NOT AVBL
WAIANAE VLY*   NOT AVBL
KUAOKALA*        N/A     66 N/A N/A N23         N/A
HONOULIUULI*   NOT AVBL
MOKUOLOE IS*   NOT AVBL
PALEHUA*         N/A     63  55  77 VRB7G18     N/A
WAIAWA PHB*    NOT AVBL
$$

HIZ012>013-152100-
MOLOKAI-

CITY           SKY/WX    TMP DP  RH WIND       PRES   REMARKS
MOLOKAI AIRPT  MOSUNNY   71  59  65 N9        29.99S
KALAUPAPA      NOT AVBL
MAKAPULAPAI*     N/A     68  61  77 E12G28      N/A
MOLOKAI 1*     NOT AVBL
PUU ALII*        N/A     48  48 100 NE2G12      N/A
$$

HIZ016-152100-
KAHOOLAWE-

CITY           SKY/WX    TMP DP  RH WIND       PRES   REMARKS
KAHOOLAWE*     NOT AVBL
HAKIOAWA*        N/A     72  56  57 MISG      30.37R
HONOKANAIA*    NOT AVBL
KANELOA*         N/A     70  54  56 N18G32      N/A
KEALIALALO*    NOT AVBL
LUA MAKIKA*    NOT AVBL
$$

HIZ014>015-152100-
LANAI-

CITY           SKY/WX    TMP DP  RH WIND       PRES   REMARKS
LANAI CITY     FAIR      66  57  72 NE16      30.01S
LANAI 1*       NOT AVBL
$$

HIZ017>028-152100-
MAUI-

CITY           SKY/WX    TMP DP  RH WIND       PRES   REMARKS
KAHULUI        PTSUNNY   76  59  55 NE16      29.96F
KAPALUA-W MAUI MOSUNNY   73  55  53 N12G22    29.98
HANA AIRPORT   PTSUNNY   72  63  73 NW12      29.99S
HANA*            N/A     73 N/A N/A N8G14       N/A
HALEAKALA SUMM   N/A     28  25  86 MISG        N/A
MAALAEA BAY*     N/A     75 N/A N/A NE14G26     N/A
HALEAKALA*     NOT AVBL
KAUPO GAP*     NOT AVBL
KULA 1*          N/A     50  33  51 NW3G10      N/A
$$

HIZ023>026-152100-
BIG ISLAND OF HAWAII COAST AND LOWER SLOPES-

CITY           SKY/WX    TMP DP  RH WIND       PRES   REMARKS
KAILUA KONA    SUNNY     78  47  33 N20G28    29.93F
HILO           PTSUNNY   74  57  55 N9        29.95F
HONOKAA*         N/A     68 N/A N/A VRB1        N/A
KAWAIHAE MWT*    N/A     77 N/A N/A N10G17      N/A
KAWAIHAE*        N/A     75 N/A N/A NE8       29.93F
SOUTH POINT*     N/A     73 N/A N/A N5          N/A
UPOLU AIRPORT* NOT AVBL
KAMUELA*       CLEAR     64  54  68 NE14      30.00F
HAKALAU*         N/A     52  34  50 NE9G20      N/A
KALOKO-HONOKO*   N/A     81  48  32 S5G25       N/A
PALI 2*          N/A     63  45  51 SW14G23     N/A
KEALAKOMO*       N/A     73  52  46 NW26G41     N/A
KAUPULEHU*       N/A     73  50  43 NE12G18     N/A
KAPAPALA*        N/A     71  50  46 W2          N/A
LOWER KAHUKU*  NOT AVBL
PUHE CS*         N/A     75  50  41 NE3G13      N/A
PUHO CS*         N/A     80  48  32 S3          N/A
PTA KEAMUKU*     N/A     61  46  59 NE17G24     N/A
WAIKOLOA*        N/A     73  52  46 NE12G18     N/A
$$

HIZ027>028-152100-
BIG ISLAND OF HAWAII INTERIOR AND SUMMMITS-

CITY           SKY/WX    TMP DP  RH WIND       PRES   REMARKS
BRADSHAW FIELD SUNNY     51  37  58 SW6       30.16S
MK VISITOR CEN   N/A     41  30  65 S5          N/A
MAUNA KEA*       N/A     28 -27   8 W32         N/A  WCI  12
MAUNA LOA*       N/A     41 -13   9 MISG        N/A
MAUNA LOA 1*   NOT AVBL
PTA KIPUKA*      N/A    N/A N/A N/A SE5G13      N/A
PTA RANGE 17*    N/A     64  52  63 E2G9        N/A
PTA WEST*        N/A    N/A N/A N/A NW7G13      N/A
NENE CABIN*      N/A     45  37  76 E3          N/A
AHUMOA*          N/A     53  40  60 NE10G18     N/A
PTA PORTABLE*  NOT AVBL
PUU MALI*        N/A     48 N/A N/A E7G13       N/A
$$

HIC003-152100-
NORTHWEST ISLANDS-

CITY           SKY/WX    TMP DP  RH WIND       PRES   REMARKS
MIDWAY ISLAND  SUNNY     72  64  78 S9        30.18R
MIDWAY NOS*      N/A     73 N/A N/A MISG      30.16S
FRENCH FRIGATE NOT AVBL
$$

PHZ110>124-180-152100-
BUOY REPORTS

STATION/POSITION TIME  TEMP    WIND        PRES    WAVE   SWELL
                       AIR SEA DIR/SP/G            HT/PER HT/DIR
                 (UTC) (F)     (DEG/KT/KT) (MB)    (FT/S) (FT/D)
BUOY 51001       2020   71 75   60/ 19/ 27 1021.3
BUOY 51101       1950   70 74   40/ 21/ 29 1021.4R  10/ 7   5/330
BUOY 51100       NOT AVBL
BUOY 51002       2020   75 78   30/ 16/ 19 1013.6
BUOY 51003       1950   74 77   40/ 19/ 25 1015.9R  11/ 9   8/ 30
BUOY 51004       2020   74      10/  6/ 10 1012.7
WAIMEA BAY#      2002      74                N/A    10/13   5/320
MOKAPU POINT#    2004      76                N/A     9/ 8   3
LANAI#           NOT AVBL
BARBERS PT 2#    NOT AVBL
PAUWELA#         2000      77                N/A    12/12   7/320
HILO#            2027      77                N/A    10/13   7/340
KANEOHE BAY#     NOT AVBL
KANEOHE BAY 2#   NOT AVBL
HANALEI#         2022      76                N/A    11/ 8   5/330
KAHULUI HARBOR   2006   72 74   20/ 13/ 15 1014.7
HONOLULU HARBOR  2006   72 76  340/  4/ 10 1016.5
PEARL HARBOR#    2000      77                N/A     1/ 8
KILO NALU        NOT AVBL
HILO HARBOR      2006   72 75   20/ 14/ 19 1013.9
MOKUOLOE         1936   70 72   10/ 17/ 20 1016.4R
NAWILIWILI       2006   72 77   10/ 18/ 23 1017.7
WHOTS BUOY       NOT AVBL
BUOY 51028       NOT AVBL
$$

......................KEY........................................
  SKY/WX - SKY CONDITIONS/PRESENT WEATHER
  TMP    - TEMPERATURE IN FAHRENHEIT
  DWPT   - DEWPOINT IN FAHRENHEIT
  RH     - RELATIVE HUMIDITY IN PERCENT
  WIND   - DIRECTION AND SPEED /MPH FOR ISLANDS...KTS FOR BUOYS/
  PRES   - MEAN SEA LEVEL PRESSURE IN INCHES OF HG
  VSB    - VISIBILITY IN MILES
  HX     - HEAT INDEX
  WCI    - WIND CHILL INDEX
  VRB    - VARIABLE WIND DIRECTION
  N/A    - NOT AVAILABLE




USA.gov is the U.S. government's official web portal to all federal, state and local government web resources and services.